Pullman, WA

3:02 PM PST on December 14, 2017 (GMT -0800)
Pullman-Moscow Regional

Weather History for KPUW - February, 2014

Change the Weather History Date:

Tuesday, February 11, 2014

  Actual Average Record
Temperature  
Mean Temperature 38 °F 34 °F  
Max Temperature 41 °F 41 °F 55 °F (1991)
Min Temperature 35 °F 28 °F -4 °F (1948)
Degree Days  
Heating Degree Days 27 31  
Month to date heating degree days 513 346  
Since 1 July heating degree days 4349 4205  
Cooling Degree Days 0 0  
Month to date cooling degree days 0 0  
Year to date cooling degree days 0 0  
Moisture  
Dew Point 32 °F    
Average Humidity 84    
Maximum Humidity 92    
Minimum Humidity 76    
Precipitation  
Precipitation 0.03 in 0.06 in 0.34 in (1947)
Month to date precipitation 0.38 0.69  
Year to date precipitation 2.29 2.51  
Sea Level Pressure  
Sea Level Pressure 30.09 in    
Wind  
Wind Speed 11 mph (SW)    
Max Wind Speed 24 mph    
Max Gust Speed 34 mph    
Visibility 10 miles    
Events Rain    
T = Trace of Precipitation, MM = Missing Value Source: NWS Daily Summary

Daily Weather History Graph

Daily Weather History Graph

Search for Another Location

Airport or City:

Trip Planner

Search our weather history database for the weather conditions in past years. The results will help you decide how hot, cold, wet, or windy it might be!

Date:

Astronomy

Feb. 11, 2014 Rise Set
Actual Time 6:58 AM PST 5:07 PM PST
Civil Twilight 6:27 AM PST 5:38 PM PST
Nautical Twilight 5:51 AM PST 6:14 PM PST
Astronomical Twilight 5:16 AM PST 6:49 PM PST
Moon 2:27 PM PST (2/11) 4:43 AM PST (2/11)
Length of Visible Light 11h 11m
Length of Day
10h 08m
Waxing Gibbous, 91% of the Moon is Illuminated
Feb 11
Waxing Gibbous
Feb 14
Full
Feb 22
Last Quarter
Mar 1
New
Mar 8
First Quarter

Hourly Weather History & Observations

Time (PST) Temp. Windchill Dew Point Humidity Pressure Visibility Wind Dir Wind Speed Gust Speed Precip Events Conditions
12:53 AM 37.0 °F 32.4 °F 32.0 °F 82% 30.09 in 10.0 mi SW 5.8 mph - N/A   Overcast
1:53 AM 37.0 °F 29.8 °F 32.0 °F 82% 30.09 in 10.0 mi SW 10.4 mph - 0.00 in   Overcast
2:53 AM 37.0 °F 30.4 °F 32.0 °F 82% 30.07 in 10.0 mi SSW 9.2 mph - 0.00 in   Overcast
3:53 AM 37.9 °F 30.0 °F 32.0 °F 79% 30.05 in 10.0 mi SW 12.7 mph - N/A   Overcast
4:51 AM 37.4 °F 28.9 °F 30.2 °F 75% 30.00 in 10.0 mi WSW 13.8 mph - N/A   Overcast
4:53 AM 37.9 °F 29.6 °F 30.9 °F 76% 30.06 in 10.0 mi WSW 13.8 mph - N/A   Overcast
5:44 AM 36.0 °F 25.0 °F 30.9 °F 82% 30.01 in 7.0 mi WSW 20.7 mph 31.1 mph 0.03 in Rain Light Rain
5:53 AM 36.0 °F 25.6 °F 32.0 °F 86% 30.07 in 10.0 mi West 18.4 mph 27.6 mph 0.03 in   Overcast
6:53 AM 35.1 °F 24.5 °F 30.9 °F 85% 30.08 in 10.0 mi WSW 18.4 mph - 0.00 in   Overcast
7:53 AM 35.1 °F 24.8 °F 30.9 °F 85% 30.12 in 10.0 mi West 17.3 mph - N/A   Overcast
8:32 AM 35.1 °F 27.4 °F 32.0 °F 89% 30.07 in 10.0 mi West 10.4 mph - N/A   Overcast
8:53 AM 35.1 °F 27.4 °F 32.0 °F 89% 30.13 in 10.0 mi West 10.4 mph - N/A   Overcast
9:53 AM 36.0 °F 26.3 °F 32.0 °F 86% 30.14 in 10.0 mi West 16.1 mph - N/A   Clear
10:53 AM 37.9 °F 28.5 °F 32.0 °F 79% 30.16 in 10.0 mi West 17.3 mph - N/A   Clear
11:53 AM 39.0 °F 31.0 °F 32.0 °F 76% 30.17 in 10.0 mi WSW 13.8 mph 20.7 mph N/A   Clear
12:53 PM 39.0 °F 32.8 °F 34.0 °F 82% 30.17 in 10.0 mi SW 9.2 mph - N/A   Partly Cloudy
1:53 PM 39.0 °F 34.8 °F 34.0 °F 82% 30.15 in 10.0 mi West 5.8 mph - N/A   Scattered Clouds
2:16 PM 39.9 °F 35.8 °F 34.0 °F 79% 30.11 in 10.0 mi West 5.8 mph - N/A   Mostly Cloudy
2:40 PM 39.9 °F 37.8 °F 35.1 °F 83% 30.10 in 10.0 mi Variable 3.5 mph - N/A   Scattered Clouds
2:53 PM 41.0 °F - 35.1 °F 79% 30.16 in 10.0 mi Calm Calm - N/A   Scattered Clouds
3:53 PM 37.9 °F 35.5 °F 33.1 °F 83% 30.16 in 10.0 mi NE 3.5 mph - N/A   Clear
4:53 PM 36.0 °F 30.3 °F 33.1 °F 89% 30.15 in 10.0 mi SE 6.9 mph - N/A   Overcast
5:53 PM 36.0 °F 30.3 °F 33.1 °F 89% 30.12 in 10.0 mi East 6.9 mph - N/A   Overcast
6:53 PM 37.9 °F 30.0 °F 32.0 °F 79% 30.09 in 10.0 mi East 12.7 mph - N/A   Mostly Cloudy
7:53 PM 37.0 °F 28.9 °F 30.9 °F 79% 30.07 in 10.0 mi East 12.7 mph - N/A   Overcast
8:53 PM 37.9 °F 30.9 °F 30.9 °F 76% 30.04 in 10.0 mi East 10.4 mph - N/A   Overcast
9:53 PM 36.0 °F 27.5 °F 32.0 °F 86% 30.02 in 10.0 mi East 12.7 mph - 0.00 in   Overcast
10:53 PM 36.0 °F 26.7 °F 30.9 °F 82% 29.98 in 10.0 mi East 15.0 mph - 0.00 in   Overcast
11:53 PM 36.0 °F 27.5 °F 30.9 °F 82% 29.93 in 10.0 mi East 12.7 mph - N/A   Overcast